Location: Fredericksburg
(30.2750°N, 98.8720°W)
Time: 02:42:12
(UTC-05:00)

PCSat - Pass Details

Date: 29 May 2018
Orbit: 784 x 795 km, 67.1° (Epoch: 17 August)

Event Time Altitude Azimuth Distance (km) Brightness Sun altitude
Exits shadow 04:54:50 36° 236° (SW) 1,236 10.0 -19.0°
Maximum altitude 04:56:51 57° 296° (WNW) 920 9.7 -18.6°
Drops below altitude 10° 05:02:09 10° 15° (NNE) 2,352 12.8 -17.7°
Sets 05:04:37 0° 20° (NNE) 3,286 13.8 -17.3°
